Regional Weather Roundup
Issued by NWS

Home | Current Version | Previous Version | Text Only | Print | Product List | Glossary Off
Versions: 1 2 3 4 5 6 7 8 9 10 11 12 13 14 15 16 17 18 19 20 21 22 23 24 25 26 27 28 29 30 31 32 33 34 35 36 37 38 39 40 41 42 43 44 45 46 47 48 49 50

000
ASUS43 KLMK 301102
RWRKY
KENTUCKY REGIONAL WEATHER ROUNDUP
NATIONAL WEATHER SERVICE LOUISVILLE KY
700 AM EDT WED JUL 30 2014

NOTE "FAIR" INDICATES FEW OR NO CLOUDS BELOW 12,000 FEET
WITH NO SIGNIFICANT WEATHER AND/OR OBSTRUCTIONS TO VISIBILITY.

KYZ001>023-026-027-061>063-070>075-301200-
WESTERN AND SOUTH CENTRAL KENTUCKY

CITY           SKY/WX    TMP DP  RH WIND       PRES   REMARKS
PADUCAH        PTCLDY    57  53  86 CALM      30.10R
HENDERSON      CLEAR     55  52  88 SW5       30.09R
OWENSBORO      CLEAR     56  54  93 CALM      30.09S
HOPKINSVILLE   CLEAR     54  54 100 CALM      30.11R
BOWLING GREEN  CLEAR     57  53  86 S3        30.11R
GLASGOW        FOG       55  55 100 CALM      30.11R VSB 1/2
$$

KYZ024-025-028>034-038-045-046-053-301200-
NORTH CENTRAL KENTUCKY

CITY           SKY/WX    TMP DP  RH WIND       PRES   REMARKS
LOUISVILLE/SDF PTCLDY    63  58  83 SW5       30.08R
LOUISVILLE/LOU CLEAR     61  58  90 CALM      30.09R
FORT KNOX      CLEAR     56  54  94 CALM      30.09R
$$

KYZ035>037-039>044-047>052-055>060-089>105-301200-
NORTHEAST KENTUCKY

CITY           SKY/WX    TMP DP  RH WIND       PRES   REMARKS
LEXINGTON      MOCLDY    58  54  86 S6        30.10R
COVINGTON      PTCLDY    58  55  90 CALM      30.07R
FRANKFORT      MOCLDY    57  55  93 SW3       30.08R
$$

KYZ054-064>069-076>088-106>120-301200-
SOUTHEAST KENTUCKY

CITY           SKY/WX    TMP DP  RH WIND       PRES   REMARKS
JACKSON        CLEAR     55  52  89 CALM      30.11R
LONDON         CLEAR     54  51  90 CALM      30.12S
SOMERSET       MOCLDY    52  52 100 CALM      30.14R
MIDDLESBORO    FOG       53  53 100 CALM      30.14S VSB 3/4
MONTICELLO     SUNNY     53  52  97 CALM      30.14R FOG
$$




USA.gov is the U.S. government's official web portal to all federal, state and local government web resources and services.